Starlink 31956

operational
NORAD ID: 59930 Int'l Des: 2024-106 Owner: SPXS Country: US Constellation: starlink
LEOCIRCULAR

关于 Starlink 31956

正在加载描述...

实时位置

正在加载3D地球...

即将过境

高度历史

Altitude vs Time

uPlot chart will show altitude changes over time

两行轨道根数

1 59930U 24106J 25352.28637489 .00001584 00000-0 67070-4 0 9995
2 59930 43.0032 72.2088 0000908 252.9513 107.1239 15.27570938 88074
Epoch: Dec 18, 2025 • Age: 20 hours

当前状态

高度 493.1 km
速度 7.62 km/s
星下点 -36.24°S, 117.12°W
发射日期 Jun 1, 2024
运行时间 1.5 years
类型 internet

技术详情

分类 Payload
质量 730.00 kg
干质量 700.00 kg
总质量 730.00 kg
长度 0.30 m
直径 4.10 m
跨度 29.00 m
形状 Box + pan
制造商 SPXS
平台类型 Starlink V2M
阶段状态 In Orbit
所有者/国家 SPXS/US

大型星座

Loading constellations...